Time,TemperatureF,DewpointF,PressureIn,WindDirection,WindDirectionDegrees,WindSpeedMPH,WindSpeedGustMPH,Humidity,HourlyPrecipIn,Conditions,Clouds,dailyrainin,SoftwareType,DateUTC
2013-02-10 00:01:00,34.0,25.0,30.24,NE,41,0.0,2.0,68,0.00,,,0.00,,2013-02-10 05:01:00,
2013-02-10 00:11:00,34.0,25.0,30.24,NE,41,0.0,2.0,68,0.00,,,0.00,,2013-02-10 05:11:00,
2013-02-10 00:22:00,34.0,24.0,30.24,NE,41,1.0,3.0,67,0.00,,,0.00,,2013-02-10 05:22:00,
2013-02-10 00:32:00,34.0,25.0,30.25,NE,41,0.0,2.0,69,0.00,,,0.00,,2013-02-10 05:32:00,
2013-02-10 00:42:00,34.0,25.0,30.25,NE,41,0.0,2.0,69,0.00,,,0.00,,2013-02-10 05:42:00,
2013-02-10 00:52:00,34.0,24.0,30.25,NE,41,1.0,4.0,67,0.00,,,0.00,,2013-02-10 05:52:00,
2013-02-10 01:02:00,34.0,24.0,30.25,NE,41,1.0,3.0,67,0.00,,,0.00,,2013-02-10 06:02:00,
2013-02-10 01:11:00,34.0,24.0,30.25,NE,41,1.0,3.0,67,0.00,,,0.00,,2013-02-10 06:11:00,
2013-02-10 01:21:00,34.0,24.0,30.25,NE,41,0.0,2.0,67,0.00,,,0.00,,2013-02-10 06:21:00,
2013-02-10 01:32:00,34.0,24.0,30.25,NE,40,1.0,5.0,67,0.00,,,0.00,,2013-02-10 06:32:00,
2013-02-10 01:42:00,34.0,24.0,30.25,NE,40,1.0,5.0,67,0.00,,,0.00,,2013-02-10 06:42:00,
2013-02-10 01:51:00,34.0,24.0,30.25,NE,40,0.0,2.0,67,0.00,,,0.00,,2013-02-10 06:51:00,
2013-02-10 02:01:00,34.0,25.0,30.25,NE,40,1.0,4.0,68,0.00,,,0.00,,2013-02-10 07:01:00,
2013-02-10 02:11:00,34.0,25.0,30.25,NE,40,1.0,4.0,68,0.00,,,0.00,,2013-02-10 07:11:00,
2013-02-10 02:21:00,34.0,24.0,30.25,NE,40,1.0,4.0,67,0.00,,,0.00,,2013-02-10 07:21:00,
2013-02-10 02:32:00,34.0,25.0,30.25,NE,40,1.0,2.0,69,0.00,,,0.00,,2013-02-10 07:32:00,
2013-02-10 02:42:00,34.0,25.0,30.25,NE,40,1.0,2.0,69,0.00,,,0.00,,2013-02-10 07:42:00,
2013-02-10 02:51:00,35.0,25.0,30.26,NE,40,1.0,3.0,66,0.00,,,0.00,,2013-02-10 07:51:00,
2013-02-10 03:01:00,35.0,25.0,30.25,NE,43,0.0,0.0,67,0.00,,,0.00,,2013-02-10 08:01:00,
2013-02-10 03:11:00,35.0,25.0,30.25,NE,43,0.0,0.0,67,0.00,,,0.00,,2013-02-10 08:11:00,
2013-02-10 03:21:00,35.0,25.0,30.25,NE,44,1.0,3.0,66,0.00,,,0.00,,2013-02-10 08:21:00,
2013-02-10 03:32:00,35.0,24.0,30.25,NE,50,0.0,3.0,64,0.00,,,0.00,,2013-02-10 08:32:00,
2013-02-10 03:43:00,35.0,24.0,30.25,NE,50,0.0,3.0,64,0.00,,,0.00,,2013-02-10 08:43:00,
2013-02-10 03:52:00,35.0,24.0,30.25,NE,50,0.0,2.0,65,0.00,,,0.00,,2013-02-10 08:52:00,
2013-02-10 04:02:00,35.0,24.0,30.25,NE,50,1.0,3.0,65,0.00,,,0.00,,2013-02-10 09:02:00,
2013-02-10 04:11:00,35.0,24.0,30.25,NE,50,1.0,3.0,65,0.00,,,0.00,,2013-02-10 09:11:00,
2013-02-10 04:21:00,35.0,24.0,30.25,NE,50,0.0,0.0,65,0.00,,,0.00,,2013-02-10 09:21:00,
2013-02-10 04:32:00,36.0,24.0,30.25,NE,54,0.0,4.0,62,0.00,,,0.00,,2013-02-10 09:32:00,
2013-02-10 04:42:00,36.0,24.0,30.25,NE,54,0.0,4.0,62,0.00,,,0.00,,2013-02-10 09:42:00,
2013-02-10 04:51:00,36.0,24.0,30.25,NE,42,2.0,4.0,62,0.00,,,0.00,,2013-02-10 09:51:00,
2013-02-10 05:01:00,36.0,24.0,30.25,ENE,77,0.0,3.0,61,0.00,,,0.00,,2013-02-10 10:01:00,
2013-02-10 05:11:00,36.0,23.0,30.25,ENE,74,1.0,4.0,60,0.00,,,0.00,,2013-02-10 10:11:00,
2013-02-10 05:21:00,36.0,23.0,30.25,ENE,74,1.0,4.0,60,0.00,,,0.00,,2013-02-10 10:21:00,
2013-02-10 05:32:00,36.0,24.0,30.24,ENE,66,1.0,5.0,62,0.00,,,0.00,,2013-02-10 10:32:00,
2013-02-10 05:42:00,36.0,24.0,30.24,ENE,66,1.0,5.0,62,0.00,,,0.00,,2013-02-10 10:42:00,
2013-02-10 05:51:00,36.0,24.0,30.25,ENE,66,0.0,2.0,62,0.00,,,0.00,,2013-02-10 10:51:00,
2013-02-10 06:01:00,36.0,24.0,30.27,ENE,61,0.0,1.0,62,0.00,,,0.00,,2013-02-10 11:01:00,
2013-02-10 06:11:00,36.0,24.0,30.27,ENE,61,0.0,1.0,62,0.00,,,0.00,,2013-02-10 11:11:00,
2013-02-10 06:22:00,36.0,24.0,30.27,ENE,61,0.0,1.0,62,0.00,,,0.00,,2013-02-10 11:22:00,
2013-02-10 06:32:00,36.0,25.0,30.28,ENE,61,1.0,1.0,64,0.00,,,0.00,,2013-02-10 11:32:00,
2013-02-10 06:42:00,36.0,25.0,30.28,ENE,61,1.0,1.0,64,0.00,,,0.00,,2013-02-10 11:42:00,
2013-02-10 06:52:00,36.0,26.0,30.28,ENE,61,1.0,2.0,66,0.00,,,0.00,,2013-02-10 11:52:00,
2013-02-10 07:02:00,36.0,25.0,30.28,NNE,32,0.0,5.0,64,0.00,,,0.00,,2013-02-10 12:02:00,
2013-02-10 07:12:00,36.0,25.0,30.28,NNE,32,0.0,5.0,64,0.00,,,0.00,,2013-02-10 12:12:00,
2013-02-10 07:21:00,36.0,24.0,30.28,NNE,32,1.0,3.0,62,0.00,,,0.00,,2013-02-10 12:21:00,
2013-02-10 07:32:00,36.0,23.0,30.29,NE,39,0.0,1.0,60,0.00,,,0.00,,2013-02-10 12:32:00,
2013-02-10 07:42:00,36.0,23.0,30.29,NE,39,0.0,1.0,60,0.00,,,0.00,,2013-02-10 12:42:00,
2013-02-10 07:52:00,36.0,23.0,30.29,NE,39,1.0,2.0,60,0.00,,,0.00,,2013-02-10 12:52:00,
2013-02-10 08:02:00,35.0,24.0,30.28,NE,39,0.0,2.0,63,0.00,,,0.00,,2013-02-10 13:02:00,
2013-02-10 08:11:00,35.0,24.0,30.28,NE,39,0.0,2.0,63,0.00,,,0.00,,2013-02-10 13:11:00,
2013-02-10 08:21:00,35.0,24.0,30.29,NE,39,0.0,2.0,63,0.00,,,0.00,,2013-02-10 13:21:00,
2013-02-10 08:31:00,35.0,22.0,30.29,NE,39,0.0,1.0,58,0.00,,,0.00,,2013-02-10 13:31:00,
2013-02-10 08:41:00,35.0,22.0,30.29,NE,39,0.0,1.0,58,0.00,,,0.00,,2013-02-10 13:41:00,
2013-02-10 08:51:00,35.0,23.0,30.29,NE,39,0.0,2.0,60,0.00,,,0.00,,2013-02-10 13:51:00,
2013-02-10 09:02:00,36.0,21.0,30.29,ENE,65,1.0,2.0,55,0.00,,,0.00,,2013-02-10 14:02:00,
2013-02-10 09:11:00,36.0,21.0,30.29,ENE,65,1.0,2.0,55,0.00,,,0.00,,2013-02-10 14:11:00,
2013-02-10 09:21:00,37.0,20.0,30.29,ENE,78,2.0,5.0,49,0.00,,,0.00,,2013-02-10 14:21:00,
2013-02-10 09:32:00,39.0,19.0,30.29,ESE,104,3.0,6.0,44,0.00,,,0.00,,2013-02-10 14:32:00,
2013-02-10 09:41:00,39.0,19.0,30.29,ESE,104,3.0,6.0,44,0.00,,,0.00,,2013-02-10 14:41:00,
2013-02-10 09:52:00,40.0,19.0,30.30,NE,36,2.0,5.0,42,0.00,,,0.00,,2013-02-10 14:52:00,
2013-02-10 10:02:00,41.0,19.0,30.30,ENE,67,2.0,7.0,41,0.00,,,0.00,,2013-02-10 15:02:00,
2013-02-10 10:11:00,41.0,19.0,30.30,ENE,67,2.0,7.0,41,0.00,,,0.00,,2013-02-10 15:11:00,
2013-02-10 10:22:00,41.0,19.0,30.29,NE,50,3.0,8.0,40,0.00,,,0.00,,2013-02-10 15:22:00,
2013-02-10 10:32:00,42.0,19.0,30.30,NE,44,3.0,7.0,40,0.00,,,0.00,,2013-02-10 15:32:00,
2013-02-10 10:42:00,42.0,19.0,30.30,NE,44,3.0,7.0,40,0.00,,,0.00,,2013-02-10 15:42:00,
2013-02-10 10:52:00,42.0,19.0,30.31,NNE,21,4.0,5.0,39,0.00,,,0.00,,2013-02-10 15:52:00,
2013-02-10 11:02:00,43.0,19.0,30.30,North,352,1.0,8.0,38,0.00,,,0.00,,2013-02-10 16:02:00,
2013-02-10 11:12:00,43.0,19.0,30.30,North,7,4.0,8.0,37,0.00,,,0.00,,2013-02-10 16:12:00,
2013-02-10 11:22:00,43.0,19.0,30.30,North,7,4.0,8.0,37,0.00,,,0.00,,2013-02-10 16:22:00,
2013-02-10 11:32:00,43.0,18.0,30.29,NE,52,4.0,6.0,36,0.00,,,0.00,,2013-02-10 16:32:00,
2013-02-10 11:42:00,43.0,19.0,30.29,ENE,67,2.0,6.0,37,0.00,,,0.00,,2013-02-10 16:42:00,
2013-02-10 11:52:00,43.0,19.0,30.29,ENE,67,2.0,6.0,37,0.00,,,0.00,,2013-02-10 16:52:00,
2013-02-10 12:02:00,43.0,20.0,30.29,NE,41,3.0,8.0,39,0.00,,,0.00,,2013-02-10 17:02:00,
2013-02-10 12:11:00,43.0,20.0,30.29,NE,41,3.0,8.0,39,0.00,,,0.00,,2013-02-10 17:11:00,
2013-02-10 12:22:00,44.0,20.0,30.27,ENE,71,1.0,9.0,38,0.00,,,0.00,,2013-02-10 17:22:00,
2013-02-10 12:32:00,45.0,21.0,30.27,North,358,2.0,8.0,38,0.00,,,0.00,,2013-02-10 17:32:00,
2013-02-10 12:42:00,45.0,20.0,30.27,NE,34,3.0,6.0,36,0.00,,,0.00,,2013-02-10 17:42:00,
2013-02-10 12:52:00,45.0,20.0,30.27,NE,34,3.0,6.0,36,0.00,,,0.00,,2013-02-10 17:52:00,
2013-02-10 13:02:00,46.0,22.0,30.26,North,0,2.0,5.0,38,0.00,,,0.00,,2013-02-10 18:02:00,
2013-02-10 13:12:00,45.0,20.0,30.25,ENE,64,2.0,7.0,37,0.00,,,0.00,,2013-02-10 18:12:00,
2013-02-10 13:22:00,45.0,20.0,30.25,ENE,64,2.0,7.0,37,0.00,,,0.00,,2013-02-10 18:22:00,
2013-02-10 13:32:00,46.0,20.0,30.23,NNE,20,4.0,9.0,35,0.00,,,0.00,,2013-02-10 18:32:00,
2013-02-10 13:42:00,46.0,20.0,30.23,NNE,20,4.0,9.0,35,0.00,,,0.00,,2013-02-10 18:42:00,
2013-02-10 13:52:00,45.0,20.0,30.22,NNE,19,5.0,9.0,36,0.00,,,0.00,,2013-02-10 18:52:00,
2013-02-10 14:02:00,46.0,21.0,30.21,North,2,6.0,11.0,36,0.00,,,0.00,,2013-02-10 19:02:00,
2013-02-10 14:12:00,46.0,20.0,30.20,North,354,5.0,11.0,35,0.00,,,0.00,,2013-02-10 19:12:00,
2013-02-10 14:22:00,46.0,20.0,30.20,North,354,5.0,11.0,35,0.00,,,0.00,,2013-02-10 19:22:00,
2013-02-10 14:32:00,46.0,19.0,30.20,ENE,70,4.0,9.0,33,0.00,,,0.00,,2013-02-10 19:32:00,
2013-02-10 14:42:00,46.0,19.0,30.21,NNE,14,4.0,6.0,34,0.00,,,0.00,,2013-02-10 19:42:00,
2013-02-10 14:52:00,46.0,19.0,30.21,NNE,14,4.0,6.0,34,0.00,,,0.00,,2013-02-10 19:52:00,
2013-02-10 15:02:00,46.0,21.0,30.19,North,350,2.0,6.0,37,0.00,,,0.00,,2013-02-10 20:02:00,
2013-02-10 15:11:00,46.0,21.0,30.19,North,350,2.0,6.0,37,0.00,,,0.00,,2013-02-10 20:11:00,
2013-02-10 15:22:00,46.0,22.0,30.19,WSW,255,0.0,5.0,38,0.00,,,0.00,,2013-02-10 20:22:00,
2013-02-10 15:32:00,47.0,25.0,30.18,North,0,0.0,4.0,41,0.00,,,0.00,,2013-02-10 20:32:00,
2013-02-10 15:42:00,47.0,25.0,30.17,NNE,30,3.0,10.0,41,0.00,,,0.00,,2013-02-10 20:42:00,
2013-02-10 15:52:00,47.0,25.0,30.17,NNE,30,3.0,10.0,41,0.00,,,0.00,,2013-02-10 20:52:00,
2013-02-10 16:02:00,46.0,23.0,30.17,NNE,32,4.0,9.0,40,0.00,,,0.00,,2013-02-10 21:02:00,
2013-02-10 16:11:00,46.0,23.0,30.17,NNE,32,4.0,9.0,40,0.00,,,0.00,,2013-02-10 21:11:00,
2013-02-10 16:22:00,45.0,23.0,30.19,NE,35,1.0,10.0,41,0.00,,,0.00,,2013-02-10 21:22:00,
2013-02-10 16:32:00,45.0,24.0,30.19,ENE,68,0.0,6.0,44,0.00,,,0.00,,2013-02-10 21:32:00,
2013-02-10 16:42:00,45.0,24.0,30.19,NE,43,1.0,4.0,44,0.00,,,0.00,,2013-02-10 21:42:00,
2013-02-10 16:52:00,45.0,24.0,30.19,NE,43,1.0,4.0,44,0.00,,,0.00,,2013-02-10 21:52:00,
2013-02-10 17:02:00,44.0,23.0,30.18,NNE,30,3.0,6.0,44,0.00,,,0.00,,2013-02-10 22:02:00,
2013-02-10 17:11:00,44.0,24.0,30.17,North,7,4.0,5.0,45,0.00,,,0.00,,2013-02-10 22:11:00,
2013-02-10 17:22:00,44.0,24.0,30.17,North,7,4.0,5.0,45,0.00,,,0.00,,2013-02-10 22:22:00,
2013-02-10 17:32:00,44.0,25.0,30.17,ENE,64,0.0,5.0,47,0.00,,,0.00,,2013-02-10 22:32:00,
2013-02-10 17:42:00,44.0,26.0,30.17,ENE,74,2.0,7.0,48,0.00,,,0.00,,2013-02-10 22:42:00,
2013-02-10 17:52:00,44.0,26.0,30.17,ENE,74,2.0,7.0,48,0.00,,,0.00,,2013-02-10 22:52:00,
2013-02-10 18:02:00,42.0,30.0,30.18,East,82,0.0,3.0,62,0.01,,,0.01,,2013-02-10 23:02:00,
2013-02-10 18:11:00,42.0,30.0,30.18,East,82,0.0,3.0,62,0.01,,,0.01,,2013-02-10 23:11:00,
2013-02-10 18:22:00,41.0,32.0,30.19,East,82,1.0,2.0,69,0.01,,,0.01,,2013-02-10 23:22:00,
2013-02-10 18:32:00,39.0,32.0,30.18,East,83,4.0,6.0,75,0.03,,,0.03,,2013-02-10 23:32:00,
2013-02-10 18:42:00,39.0,33.0,30.18,East,100,1.0,4.0,79,0.06,,,0.06,,2013-02-10 23:42:00,
2013-02-10 18:52:00,39.0,33.0,30.18,East,100,1.0,4.0,79,0.06,,,0.06,,2013-02-10 23:52:00,
2013-02-10 19:02:00,38.0,33.0,30.18,East,98,0.0,2.0,83,-99.99,,,-99.99,,2013-02-11 00:02:00,
2013-02-10 19:11:00,39.0,35.0,30.18,East,98,0.0,2.0,85,-99.99,,,-99.99,,2013-02-11 00:11:00,
2013-02-10 19:22:00,39.0,35.0,30.18,East,98,0.0,2.0,85,-99.99,,,-99.99,,2013-02-11 00:22:00,
2013-02-10 19:32:00,39.0,35.0,30.18,East,89,2.0,4.0,86,-99.99,,,-99.99,,2013-02-11 00:32:00,
2013-02-10 19:42:00,39.0,35.0,30.18,East,89,1.0,2.0,87,-99.99,,,-99.99,,2013-02-11 00:42:00,
2013-02-10 19:51:00,39.0,35.0,30.18,East,89,1.0,2.0,87,-99.99,,,-99.99,,2013-02-11 00:51:00,
2013-02-10 20:01:00,39.0,36.0,30.19,East,89,0.0,1.0,88,-99.99,,,-99.99,,2013-02-11 01:01:00,
2013-02-10 20:11:00,39.0,36.0,30.19,East,89,0.0,1.0,88,-99.99,,,-99.99,,2013-02-11 01:11:00,
2013-02-10 20:21:00,39.0,36.0,30.18,NNE,27,3.0,5.0,88,-99.99,,,-99.99,,2013-02-11 01:21:00,
2013-02-10 20:32:00,40.0,37.0,30.19,NE,51,0.0,1.0,89,0.12,,,-99.99,,2013-02-11 01:32:00,
2013-02-10 20:42:00,40.0,37.0,30.21,NE,51,0.0,3.0,89,0.11,,,-99.99,,2013-02-11 01:42:00,
2013-02-10 20:52:00,40.0,37.0,30.21,NE,51,0.0,3.0,89,0.11,,,-99.99,,2013-02-11 01:52:00,
2013-02-10 21:01:00,40.0,37.0,30.21,NE,52,1.0,4.0,90,0.11,,,-99.99,,2013-02-11 02:01:00,
2013-02-10 21:11:00,40.0,37.0,30.21,NE,52,1.0,4.0,90,0.11,,,-99.99,,2013-02-11 02:11:00,
2013-02-10 21:21:00,40.0,37.0,30.22,NE,51,0.0,2.0,89,0.10,,,-99.99,,2013-02-11 02:21:00,
2013-02-10 21:32:00,40.0,37.0,30.20,NE,51,0.0,2.0,89,0.09,,,-99.99,,2013-02-11 02:32:00,
2013-02-10 21:42:00,40.0,37.0,30.19,ENE,59,0.0,3.0,90,0.09,,,-99.99,,2013-02-11 02:42:00,
2013-02-10 21:52:00,40.0,37.0,30.19,ENE,59,0.0,3.0,90,0.09,,,-99.99,,2013-02-11 02:52:00,
2013-02-10 22:02:00,41.0,39.0,30.18,NE,43,2.0,5.0,91,0.07,,,-99.99,,2013-02-11 03:02:00,
2013-02-10 22:11:00,42.0,40.0,30.17,ENE,57,3.0,5.0,91,0.07,,,-99.99,,2013-02-11 03:11:00,
2013-02-10 22:21:00,42.0,40.0,30.17,ENE,57,3.0,5.0,91,0.07,,,-99.99,,2013-02-11 03:21:00,
2013-02-10 22:32:00,43.0,41.0,30.15,ENE,60,3.0,6.0,91,0.06,,,-99.99,,2013-02-11 03:32:00,
2013-02-10 22:42:00,43.0,41.0,30.14,ENE,59,2.0,6.0,91,0.05,,,-99.99,,2013-02-11 03:42:00,
2013-02-10 22:52:00,43.0,41.0,30.14,ENE,59,2.0,6.0,91,0.05,,,-99.99,,2013-02-11 03:52:00,
2013-02-10 23:02:00,43.0,41.0,30.14,NE,48,1.0,4.0,91,0.03,,,-99.99,,2013-02-11 04:02:00,
2013-02-10 23:11:00,43.0,41.0,30.14,NE,48,1.0,4.0,91,0.03,,,-99.99,,2013-02-11 04:11:00,
2013-02-10 23:22:00,43.0,41.0,30.13,North,0,3.0,5.0,91,0.01,,,-99.99,,2013-02-11 04:22:00,
2013-02-10 23:32:00,44.0,42.0,30.11,ENE,58,0.0,5.0,92,0.00,,,-99.99,,2013-02-11 04:32:00,
2013-02-10 23:42:00,44.0,42.0,30.10,NNE,24,0.0,4.0,92,0.00,,,-99.99,,2013-02-11 04:42:00,
2013-02-10 23:52:00,44.0,42.0,30.10,NNE,24,0.0,4.0,92,0.00,,,-99.99,,2013-02-11 04:52:00,